Погода в Кишалах

Россия / Республика Мордовия     54°22′30″N   43°12′02″E
темп.,
°C
ветер,
м/с
пор.,
м/с
влажн.,
%
обл.,
%
осадки,
мм/ч
давл.,
гПа
погр.,
м
19 января, вт
вт1900:00−20всв2395100 0.0 1019138
03:00−20св1196100 0.1 101928
06:00−21св1296100 0.1 101838
09:00−20всв0195100 0.1 101828
12:00−18сз0191100 0.1 1018217
15:00−16ссз1292100 0.1 1017249
18:00−19зюз119898 0.1 101820
21:00−18з229799 0.3 101770
20 января, ср
ср2000:00−17з2497100 0.3 1017142
03:00−17зюз2497100 0.6 1018138
06:00−17зюз3597100 0.3 1017156
09:00−16зюз3596100 0.5 1019211
12:00−14з3592100 0.2 1019345
15:00−13з369399 0.3 1019324
18:00−15з369792 0.1 1021137
21:00−16з359886 0.1 1022105
21 января, чт
чт2100:00−17з359887 0.0 102294
03:00−18зюз369992 0.1 1023112
06:00−19зюз369887 0.0 1024127
09:00−19юз489681 0.0 1025161
12:00−15юз588997 0.0 1023257
15:00−13ююз6138899 0.0 1020370
18:00−12ююз71586100 0.0 1018495
21:00−11юз81593100 1.3 1015625
22 января, пт
пт2200:00−8юз71592100 0.6 1013642
03:00−5зюз71594100 1.1 1012674
06:00−1зюз71595100 1.1 1011754
09:000зюз71496100 1.6 1011692
12:00+1зюз61397100 0.6 1012674
15:00+1зюз51295100 0.7 1013563
18:00+1зюз51194100 0.0 1014451
21:000юз51194100 0.0 1014498
23 января, сб
сб2300:00+1юз51193100 0.0 1014622
03:00+1юз61295100 0.0 1014627
06:00+1юз61298100 0.1 1014397
09:00+1юз51294100 0.1 1014628
12:00+1юз51297100 0.0 1015630
15:00+1юз41298100 0.0 1015533
18:00+1ююз41197100 0.0 1015382
21:00+1ююз61298100 0.1 1014404